TimeCDT,TemperatureF,Dew PointF,Humidity,Sea Level PressureIn,VisibilityMPH,Wind Direction,Wind SpeedMPH,Gust SpeedMPH,PrecipitationIn,Events,Conditions,WindDirDegrees,DateUTC
12:15 AM,37.4,32.0,81,29.66,10.0,SSE,11.5,-,N/A,,Clear,150,2014-03-30 05:15:00
12:35 AM,37.4,32.0,81,29.66,10.0,SSE,9.2,-,N/A,,Clear,160,2014-03-30 05:35:00
12:55 AM,37.4,32.0,81,29.66,10.0,SSE,10.4,16.1,N/A,,Clear,160,2014-03-30 05:55:00
1:15 AM,37.4,32.0,81,29.65,10.0,SSE,9.2,-,N/A,,Clear,160,2014-03-30 06:15:00
1:35 AM,39.2,32.0,75,29.64,10.0,SSE,10.4,-,N/A,,Clear,150,2014-03-30 06:35:00
1:55 AM,37.4,33.8,87,29.64,10.0,SSE,8.1,-,N/A,,Clear,150,2014-03-30 06:55:00
2:15 AM,41.0,35.6,81,29.63,10.0,SSW,5.8,-,N/A,,Clear,200,2014-03-30 07:15:00
2:35 AM,41.0,35.6,81,29.63,10.0,South,5.8,-,N/A,,Clear,190,2014-03-30 07:35:00
2:55 AM,46.4,37.4,71,29.62,10.0,WSW,13.8,21.9,N/A,,Scattered Clouds,240,2014-03-30 07:55:00
3:15 AM,46.4,37.4,71,29.63,10.0,West,15.0,24.2,N/A,,Scattered Clouds,260,2014-03-30 08:15:00
3:35 AM,46.4,37.4,71,29.64,10.0,West,13.8,18.4,N/A,,Partly Cloudy,260,2014-03-30 08:35:00
3:55 AM,42.8,37.4,81,29.65,10.0,West,9.2,16.1,N/A,,Partly Cloudy,280,2014-03-30 08:55:00
4:15 AM,42.8,37.4,81,29.67,10.0,WNW,6.9,-,N/A,,Mostly Cloudy,300,2014-03-30 09:15:00
4:35 AM,41.0,37.4,87,29.67,10.0,WNW,8.1,-,N/A,,Mostly Cloudy,300,2014-03-30 09:35:00
4:55 AM,41.0,35.6,81,29.68,10.0,WNW,6.9,-,N/A,,Partly Cloudy,300,2014-03-30 09:55:00
5:15 AM,39.2,35.6,87,29.69,10.0,WNW,8.1,-,N/A,,Clear,290,2014-03-30 10:15:00
5:35 AM,39.2,37.4,93,29.71,10.0,NW,13.8,-,N/A,,Clear,310,2014-03-30 10:35:00
5:55 AM,37.4,37.4,100,29.72,10.0,NW,15.0,-,N/A,,Clear,320,2014-03-30 10:55:00
6:15 AM,35.6,35.6,100,29.74,10.0,NNW,11.5,-,N/A,,Clear,340,2014-03-30 11:15:00
6:35 AM,35.6,35.6,100,29.76,10.0,NNW,16.1,21.9,N/A,,Clear,340,2014-03-30 11:35:00
6:55 AM,33.8,33.8,100,29.78,10.0,NNW,13.8,-,N/A,,Clear,340,2014-03-30 11:55:00
7:15 AM,32.0,32.0,100,29.79,10.0,NNW,12.7,-,N/A,,Clear,340,2014-03-30 12:15:00
7:35 AM,32.0,32.0,100,29.80,10.0,North,13.8,-,N/A,,Clear,350,2014-03-30 12:35:00
7:55 AM,32.0,32.0,100,29.82,10.0,NNW,10.4,-,N/A,,Clear,340,2014-03-30 12:55:00
8:15 AM,32.0,32.0,100,29.83,10.0,NNW,8.1,-,N/A,,Clear,330,2014-03-30 13:15:00
8:35 AM,32.0,32.0,100,29.84,10.0,NNW,13.8,-,N/A,,Clear,330,2014-03-30 13:35:00
8:55 AM,32.0,32.0,100,29.85,10.0,NNW,13.8,-,N/A,,Clear,340,2014-03-30 13:55:00
9:15 AM,32.0,32.0,100,29.86,10.0,NNW,17.3,23.0,N/A,,Mostly Cloudy,340,2014-03-30 14:15:00
9:35 AM,32.0,32.0,100,29.87,10.0,North,18.4,23.0,N/A,,Overcast,350,2014-03-30 14:35:00
9:55 AM,32.0,32.0,100,29.88,10.0,North,15.0,19.6,N/A,,Overcast,350,2014-03-30 14:55:00
10:15 AM,32.0,32.0,100,29.88,10.0,North,13.8,-,N/A,,Overcast,350,2014-03-30 15:15:00
10:35 AM,32.0,32.0,100,29.91,10.0,North,11.5,-,N/A,,Overcast,350,2014-03-30 15:35:00
10:55 AM,32.0,32.0,100,29.91,10.0,North,11.5,-,N/A,,Overcast,360,2014-03-30 15:55:00
11:15 AM,32.0,32.0,100,29.91,10.0,North,13.8,-,N/A,,Overcast,350,2014-03-30 16:15:00
11:35 AM,32.0,32.0,100,29.92,10.0,North,13.8,-,N/A,,Overcast,360,2014-03-30 16:35:00
11:55 AM,33.8,33.8,100,29.92,10.0,North,17.3,-,N/A,,Overcast,360,2014-03-30 16:55:00
12:15 PM,33.8,33.8,100,29.93,10.0,North,16.1,-,N/A,,Overcast,10,2014-03-30 17:15:00
12:35 PM,33.8,33.8,100,29.92,10.0,North,18.4,-,N/A,,Overcast,10,2014-03-30 17:35:00
12:55 PM,35.6,32.0,87,29.93,10.0,North,16.1,21.9,N/A,,Overcast,10,2014-03-30 17:55:00
1:15 PM,35.6,32.0,87,29.94,10.0,NNE,15.0,21.9,N/A,,Overcast,20,2014-03-30 18:15:00
1:35 PM,33.8,32.0,93,29.94,10.0,NNE,16.1,19.6,N/A,,Overcast,30,2014-03-30 18:35:00
1:55 PM,35.6,32.0,87,29.96,10.0,North,16.1,-,N/A,,Overcast,10,2014-03-30 18:55:00
2:15 PM,35.6,30.2,81,29.96,10.0,NNE,15.0,-,N/A,,Overcast,20,2014-03-30 19:15:00
2:35 PM,35.6,28.4,75,29.97,10.0,NNE,18.4,-,N/A,,Overcast,20,2014-03-30 19:35:00
2:55 PM,37.4,26.6,65,29.96,10.0,North,21.9,-,N/A,,Mostly Cloudy,10,2014-03-30 19:55:00
3:15 PM,37.4,26.6,65,29.95,10.0,North,19.6,26.5,N/A,,Mostly Cloudy,10,2014-03-30 20:15:00
3:35 PM,37.4,26.6,65,29.96,10.0,NNE,20.7,-,N/A,,Mostly Cloudy,20,2014-03-30 20:35:00
3:55 PM,37.4,26.6,65,29.95,10.0,NNE,18.4,27.6,N/A,,Mostly Cloudy,20,2014-03-30 20:55:00
4:15 PM,35.6,24.8,65,29.96,10.0,North,21.9,28.8,N/A,,Scattered Clouds,10,2014-03-30 21:15:00
4:35 PM,33.8,24.8,70,29.96,10.0,North,25.3,29.9,N/A,,Scattered Clouds,10,2014-03-30 21:35:00
4:55 PM,32.0,24.8,75,29.98,10.0,North,23.0,29.9,N/A,,Partly Cloudy,10,2014-03-30 21:55:00
5:15 PM,32.0,24.8,75,29.99,10.0,North,24.2,-,N/A,,Mostly Cloudy,360,2014-03-30 22:15:00
5:35 PM,32.0,24.8,75,30.00,10.0,North,24.2,28.8,N/A,,Mostly Cloudy,10,2014-03-30 22:35:00
5:55 PM,32.0,24.8,75,30.01,10.0,North,19.6,28.8,N/A,,Overcast,10,2014-03-30 22:55:00
6:15 PM,30.2,23.0,75,30.02,10.0,North,21.9,29.9,N/A,,Mostly Cloudy,10,2014-03-30 23:15:00
6:35 PM,28.4,21.2,74,30.03,10.0,North,26.5,32.2,N/A,,Overcast,10,2014-03-30 23:35:00
6:55 PM,26.6,17.6,69,30.03,10.0,North,26.5,33.4,N/A,,Overcast,10,2014-03-30 23:55:00
7:15 PM,26.6,15.8,64,30.04,10.0,North,21.9,33.4,N/A,,Overcast,10,2014-03-31 00:15:00
7:35 PM,26.6,14.0,59,30.06,10.0,North,26.5,32.2,N/A,,Overcast,360,2014-03-31 00:35:00
7:55 PM,24.8,12.2,59,30.06,10.0,North,25.3,31.1,N/A,,Overcast,10,2014-03-31 00:55:00
8:15 PM,24.8,10.4,54,30.07,10.0,North,26.5,35.7,N/A,,Overcast,10,2014-03-31 01:15:00
8:35 PM,23.0,10.4,59,30.08,10.0,NNE,27.6,35.7,N/A,,Overcast,20,2014-03-31 01:35:00
8:55 PM,23.0,10.4,59,30.09,10.0,North,26.5,36.8,N/A,,Overcast,10,2014-03-31 01:55:00
9:15 PM,21.2,8.6,58,30.10,10.0,NNE,23.0,29.9,N/A,,Overcast,20,2014-03-31 02:15:00
9:35 PM,19.4,6.8,58,30.12,10.0,North,24.2,32.2,N/A,,Overcast,10,2014-03-31 02:35:00
9:55 PM,19.4,6.8,58,30.13,10.0,North,25.3,28.8,N/A,,Overcast,10,2014-03-31 02:55:00
10:15 PM,17.6,5.0,58,30.13,10.0,North,21.9,27.6,N/A,,Overcast,10,2014-03-31 03:15:00
10:35 PM,17.6,5.0,58,30.13,10.0,North,21.9,29.9,N/A,,Overcast,360,2014-03-31 03:35:00
10:55 PM,17.6,3.2,53,30.13,10.0,North,23.0,28.8,N/A,,Overcast,10,2014-03-31 03:55:00
11:15 PM,17.6,3.2,53,30.13,10.0,North,24.2,27.6,N/A,,Overcast,360,2014-03-31 04:15:00
11:35 PM,15.8,1.4,53,30.13,10.0,North,27.6,32.2,N/A,,Overcast,360,2014-03-31 04:35:00
11:55 PM,15.8,1.4,53,30.13,10.0,North,27.6,35.7,N/A,,Overcast,360,2014-03-31 04:55:00